�������l�o���
Date,Time,MP-1(��Sv/h),MP-2(��Sv/h),MP-3(��Sv/h),MP-4(��Sv/h),MP-5(��Sv/h),MP-6(��Sv/h),MP-7(��Sv/h),MP-8(��Sv/h),����,����(m/s),���J
2023/05/13,00:00,0.561,0.824,0.495,0.998,0.720,0.324,0.575,0.542,��쓌,1.5,��
2023/05/13,00:10,0.562,0.826,0.494,0.996,0.721,0.323,0.574,0.543,��쓌,1.5,��
2023/05/13,00:20,0.560,0.823,0.494,0.995,0.718,0.324,0.576,0.541,��쓌,0.9,��
2023/05/13,00:30,0.560,0.826,0.495,0.997,0.718,0.324,0.577,0.543,��쓌,1.4,��
2023/05/13,00:40,0.560,0.825,0.494,0.997,0.719,0.324,0.576,0.541,��쓌,1.5,��
2023/05/13,00:50,0.560,0.826,0.495,0.995,0.719,0.323,0.577,0.543,�쓌,0.9,��
2023/05/13,01:00,0.560,0.824,0.495,0.996,0.720,0.323,0.577,0.543,�쓌,1.4,��
2023/05/13,01:10,0.560,0.824,0.494,0.996,0.720,0.323,0.575,0.541,�쓌,0.9,��
2023/05/13,01:20,0.561,0.825,0.495,0.993,0.719,0.324,0.576,0.542,�쓌,1.2,��
2023/05/13,01:30,0.560,0.824,0.494,0.997,0.722,0.324,0.575,0.541,��쓌,1.1,��
2023/05/13,01:40,0.561,0.826,0.491,0.996,0.721,0.324,0.576,0.542,�쓌,0.9,��
2023/05/13,01:50,0.561,0.825,0.494,0.996,0.722,0.324,0.576,0.543,���쓌,0.6,��
2023/05/13,02:00,0.562,0.825,0.493,0.995,0.719,0.324,0.578,0.543,�k��,0.8,��
2023/05/13,02:10,0.560,0.825,0.494,0.995,0.719,0.324,0.576,0.543,�k��,1.1,��
2023/05/13,02:20,0.559,0.826,0.495,0.996,0.720,0.324,0.576,0.542,�k�k��,0.9,��
2023/05/13,02:30,0.560,0.825,0.495,0.996,0.719,0.324,0.577,0.541,�k�k��,0.6,��
2023/05/13,02:40,0.561,0.824,0.494,0.994,0.721,0.325,0.577,0.542,�k�k��,0.9,��
2023/05/13,02:50,0.560,0.826,0.495,0.995,0.718,0.324,0.577,0.543,�k�k��,1.2,��
2023/05/13,03:00,0.559,0.824,0.494,0.996,0.719,0.324,0.577,0.544,�k,1.2,��
2023/05/13,03:10,0.561,0.824,0.494,0.993,0.719,0.324,0.576,0.543,�k,1.2,��
2023/05/13,03:20,0.560,0.824,0.496,0.995,0.719,0.324,0.576,0.543,�k,1.5,��
2023/05/13,03:30,0.560,0.825,0.495,0.997,0.719,0.323,0.577,0.542,�k�k��,2.2,��
2023/05/13,03:40,0.562,0.825,0.495,0.997,0.720,0.324,0.577,0.541,�k,2.5,��
2023/05/13,03:50,0.561,0.827,0.494,0.996,0.721,0.325,0.577,0.543,�k�k��,2.6,��
2023/05/13,04:00,0.561,0.825,0.495,0.997,0.721,0.324,0.576,0.543,�k�k��,2.2,��
2023/05/13,04:10,0.560,0.825,0.495,0.995,0.720,0.323,0.575,0.542,�k�k��,2.2,��
2023/05/13,04:20,0.561,0.823,0.495,0.994,0.719,0.325,0.576,0.542,�k��,2.6,��
2023/05/13,04:30,0.558,0.825,0.495,0.996,0.720,0.323,0.576,0.543,�k�k��,2.5,��
2023/05/13,04:40,0.560,0.825,0.495,0.996,0.722,0.323,0.576,0.543,�k�k��,3.1,��
2023/05/13,04:50,0.561,0.825,0.495,0.998,0.720,0.325,0.576,0.543,�k�k��,4.1,��
2023/05/13,05:00,0.562,0.826,0.494,0.996,0.720,0.325,0.576,0.543,�k�k��,3.0,��
2023/05/13,05:10,0.561,0.825,0.494,0.995,0.719,0.323,0.576,0.542,�k�k��,3.8,��
2023/05/13,05:20,0.559,0.825,0.495,0.997,0.721,0.324,0.575,0.541,�k�k��,3.5,��
2023/05/13,05:30,0.561,0.827,0.495,0.996,0.719,0.323,0.575,0.542,�k�k��,3.8,��
2023/05/13,05:40,0.561,0.824,0.495,0.998,0.722,0.324,0.575,0.541,�k�k��,4.0,��
2023/05/13,05:50,0.560,0.825,0.495,0.994,0.720,0.324,0.576,0.542,�k�k��,3.5,��
2023/05/13,06:00,0.561,0.825,0.495,0.995,0.719,0.324,0.576,0.542,�k��,3.4,��
2023/05/13,06:10,0.560,0.825,0.496,0.996,0.721,0.324,0.575,0.542,�k��,3.3,��
2023/05/13,06:20,0.562,0.826,0.495,0.996,0.722,0.323,0.577,0.542,�k��,3.6,��
2023/05/13,06:30,0.560,0.824,0.495,0.997,0.721,0.325,0.576,0.543,�k��,2.6,��
2023/05/13,06:40,0.561,0.826,0.495,0.996,0.721,0.324,0.575,0.542,�k�k��,3.1,��
2023/05/13,06:50,0.563,0.827,0.498,0.998,0.720,0.324,0.574,0.543,�k��,2.5,��
2023/05/13,07:00,0.563,0.826,0.496,0.997,0.721,0.324,0.577,0.543,�k�k��,2.6,��
2023/05/13,07:10,0.562,0.824,0.496,0.995,0.720,0.324,0.575,0.543,�k�k��,1.4,��
2023/05/13,07:20,0.560,0.823,0.496,0.997,0.721,0.323,0.575,0.543,�k��,1.5,��
2023/05/13,07:30,0.562,0.821,0.495,0.997,0.719,0.324,0.575,0.543,�k�k��,1.9,��
2023/05/13,07:40,0.563,0.823,0.496,0.997,0.722,0.323,0.575,0.541,�k,1.4,��
2023/05/13,07:50,0.560,0.825,0.494,0.997,0.720,0.323,0.576,0.542,�k,1.5,��
2023/05/13,08:00,0.559,0.822,0.494,0.997,0.721,0.323,0.575,0.542,�k,2.2,��
2023/05/13,08:10,0.561,0.823,0.494,0.998,0.721,0.323,0.574,0.541,�k��,2.0,��
2023/05/13,08:20,0.561,0.822,0.494,0.995,0.719,0.323,0.575,0.541,���k��,2.3,��
2023/05/13,08:30,0.560,0.824,0.494,0.996,0.722,0.323,0.575,0.541,�k��,2.8,��
2023/05/13,08:40,0.560,0.823,0.494,0.998,0.720,0.322,0.575,0.541,�k��,3.2,��
2023/05/13,08:50,0.559,0.823,0.496,0.998,0.718,0.324,0.574,0.541,�k�k��,3.9,��
2023/05/13,09:00,0.560,0.822,0.492,0.997,0.719,0.320,0.575,0.540,�k�k��,4.3,��
2023/05/13,09:10,0.558,0.825,0.494,0.998,0.718,0.321,0.575,0.539,�k�k��,4.3,��
2023/05/13,09:20,0.560,0.823,0.495,0.998,0.718,0.322,0.575,0.540,�k�k��,3.6,��
2023/05/13,09:30,0.561,0.823,0.494,0.997,0.720,0.323,0.574,0.541,���k��,3.3,��
2023/05/13,09:40,0.561,0.825,0.495,0.998,0.719,0.322,0.575,0.543,��,3.0,��
2023/05/13,09:50,0.562,0.822,0.496,1.000,0.720,0.323,0.574,0.540,���k��,3.1,��
2023/05/13,10:00,0.560,0.826,0.495,0.998,0.718,0.322,0.575,0.540,��,2.3,��
2023/05/13,10:10,0.560,0.825,0.493,0.997,0.719,0.322,0.574,0.540,��,2.3,��
2023/05/13,10:20,0.561,0.826,0.494,0.998,0.719,0.323,0.576,0.542,���쓌,2.6,��
2023/05/13,10:30,0.560,0.824,0.493,0.998,0.719,0.323,0.574,0.541,�쓌,3.4,��
2023/05/13,10:40,0.561,0.824,0.493,0.999,0.720,0.323,0.576,0.541,�쓌,3.5,��
2023/05/13,10:50,0.562,0.825,0.493,1.000,0.719,0.324,0.575,0.542,�쓌,3.9,��
2023/05/13,11:00,0.560,0.824,0.494,0.998,0.720,0.324,0.576,0.541,��쓌,6.5,��
2023/05/13,11:10,0.560,0.825,0.494,0.997,0.720,0.322,0.574,0.543,��쓌,7.4,��
2023/05/13,11:20,0.563,0.826,0.495,0.998,0.719,0.323,0.576,0.542,��쓌,8.7,��
2023/05/13,11:30,0.560,0.825,0.494,0.996,0.722,0.324,0.575,0.542,��쓌,8.3,��
2023/05/13,11:40,0.560,0.826,0.495,0.995,0.720,0.323,0.577,0.541,��쓌,10.6,��
2023/05/13,11:50,0.563,0.825,0.494,0.997,0.721,0.324,0.576,0.542,��쓌,10.6,��
2023/05/13,12:00,0.562,0.824,0.494,0.997,0.723,0.323,0.575,0.542,��쓌,10.2,��
2023/05/13,12:10,0.563,0.827,0.494,0.992,0.721,0.324,0.577,0.542,��쓌,12.7,��
2023/05/13,12:20,0.562,0.825,0.495,0.995,0.722,0.324,0.575,0.541,��,13.3,��
2023/05/13,12:30,0.562,0.826,0.495,0.995,0.720,0.323,0.576,0.540,��,12.0,��
2023/05/13,12:40,0.561,0.825,0.495,0.996,0.720,0.323,0.576,0.541,��,9.2,��
2023/05/13,12:50,0.562,0.825,0.495,0.997,0.721,0.324,0.575,0.541,��,10.2,��
2023/05/13,13:00,0.560,0.826,0.494,0.997,0.720,0.324,0.574,0.541,��,9.3,��
2023/05/13,13:10,0.562,0.824,0.494,0.998,0.721,0.323,0.576,0.540,��,9.3,��
2023/05/13,13:20,0.562,0.824,0.494,0.998,0.721,0.323,0.575,0.542,��쓌,10.3,��
2023/05/13,13:30,0.561,0.825,0.495,0.999,0.720,0.323,0.574,0.541,��쓌,9.3,��
2023/05/13,13:40,0.562,0.825,0.492,0.997,0.722,0.324,0.574,0.542,��쓌,9.4,��
2023/05/13,13:50,0.560,0.827,0.495,0.996,0.722,0.324,0.572,0.541,��쓌,10.2,��
2023/05/13,14:00,0.561,0.825,0.495,0.998,0.722,0.323,0.574,0.542,��쓌,9.1,��
2023/05/13,14:10,0.562,0.826,0.494,0.997,0.721,0.324,0.575,0.542,��쓌,9.1,��
2023/05/13,14:20,0.562,0.825,0.496,0.998,0.723,0.325,0.574,0.542,��쓌,9.8,��
2023/05/13,14:30,0.562,0.826,0.494,0.996,0.724,0.324,0.574,0.542,��쓌,11.1,��
2023/05/13,14:40,0.563,0.825,0.495,0.998,0.723,0.324,0.575,0.541,��쓌,12.7,��
2023/05/13,14:50,0.560,0.825,0.497,0.997,0.720,0.325,0.575,0.541,��쓌,11.3,��
2023/05/13,15:00,0.560,0.825,0.495,0.996,0.723,0.323,0.572,0.542,��,9.9,��
2023/05/13,15:10,0.561,0.825,0.495,0.997,0.722,0.324,0.573,0.542,��쓌,10.8,��
2023/05/13,15:20,0.562,0.825,0.495,0.999,0.721,0.321,0.574,0.543,��쓌,10.0,��
2023/05/13,15:30,0.563,0.826,0.496,0.997,0.722,0.325,0.575,0.541,��,9.7,��
2023/05/13,15:40,0.562,0.825,0.496,1.000,0.722,0.323,0.574,0.542,��,8.3,��
2023/05/13,15:50,0.563,0.827,0.494,0.999,0.721,0.324,0.574,0.541,��,9.5,��
2023/05/13,16:00,0.561,0.828,0.494,0.999,0.722,0.324,0.575,0.542,��,8.6,��
2023/05/13,16:10,0.562,0.825,0.495,1.000,0.723,0.323,0.575,0.541,��,9.5,��
2023/05/13,16:20,0.562,0.825,0.494,0.998,0.724,0.324,0.575,0.542,��,7.7,��
2023/05/13,16:30,0.562,0.825,0.494,1.001,0.722,0.323,0.574,0.541,��,7.8,��
2023/05/13,16:40,0.562,0.826,0.496,1.001,0.723,0.324,0.572,0.541,��,8.1,��
2023/05/13,16:50,0.562,0.825,0.496,1.000,0.724,0.323,0.575,0.542,��,6.9,��
2023/05/13,17:00,0.561,0.825,0.496,1.002,0.722,0.324,0.574,0.542,��,7.4,��
2023/05/13,17:10,0.562,0.826,0.496,1.000,0.723,0.323,0.574,0.543,��,7.8,��
2023/05/13,17:20,0.562,0.826,0.496,1.001,0.721,0.324,0.574,0.542,��,6.9,��
2023/05/13,17:30,0.561,0.825,0.496,1.000,0.723,0.322,0.574,0.542,��,7.9,��
2023/05/13,17:40,0.562,0.826,0.496,1.001,0.722,0.324,0.576,0.542,��쓌,6.9,��
2023/05/13,17:50,0.561,0.827,0.496,1.001,0.720,0.323,0.571,0.544,��,6.8,��
2023/05/13,18:00,0.562,0.826,0.496,1.003,0.722,0.323,0.574,0.541,��,9.4,��
2023/05/13,18:10,0.562,0.827,0.497,1.002,0.723,0.322,0.575,0.542,��,9.5,��
2023/05/13,18:20,0.562,0.824,0.495,1.000,0.721,0.325,0.573,0.542,��,10.2,��
2023/05/13,18:30,0.560,0.826,0.496,1.000,0.721,0.322,0.573,0.542,��,10.5,��
2023/05/13,18:40,0.561,0.825,0.494,1.000,0.722,0.324,0.574,0.543,��,9.9,��
2023/05/13,18:50,0.562,0.824,0.495,1.002,0.724,0.323,0.574,0.543,��,10.2,��
2023/05/13,19:00,0.563,0.826,0.497,1.003,0.722,0.324,0.574,0.544,��,9.5,��
2023/05/13,19:10,0.563,0.824,0.496,1.003,0.722,0.324,0.575,0.545,��,10.0,��
2023/05/13,19:20,0.562,0.827,0.497,1.001,0.723,0.323,0.574,0.545,��,10.5,�L
2023/05/13,19:30,0.564,0.826,0.498,1.002,0.722,0.324,0.574,0.543,��,9.4,�L
2023/05/13,19:40,0.563,0.829,0.499,1.001,0.724,0.323,0.575,0.544,��,9.2,�L
2023/05/13,19:50,0.562,0.826,0.497,1.000,0.723,0.323,0.576,0.544,��,8.8,�L
2023/05/13,20:00,0.564,0.827,0.499,0.999,0.723,0.324,0.576,0.544,��,8.8,�L
2023/05/13,20:10,0.562,0.829,0.498,1.002,0.722,0.325,0.576,0.543,��,8.3,��
2023/05/13,20:20,0.564,0.829,0.497,1.000,0.722,0.323,0.575,0.542,��,8.3,��
2023/05/13,20:30,0.565,0.829,0.495,1.001,0.724,0.324,0.576,0.544,��,7.6,��
2023/05/13,20:40,0.564,0.829,0.495,1.003,0.723,0.324,0.574,0.544,��,7.4,��
2023/05/13,20:50,0.563,0.829,0.495,0.998,0.722,0.324,0.576,0.544,��,8.5,��
2023/05/13,21:00,0.564,0.831,0.496,1.000,0.723,0.324,0.576,0.544,��,8.7,��
2023/05/13,21:10,0.565,0.828,0.498,0.998,0.723,0.324,0.576,0.543,��,9.9,��
2023/05/13,21:20,0.564,0.829,0.497,0.999,0.725,0.324,0.575,0.542,��쐼,9.7,��
2023/05/13,21:30,0.563,0.828,0.497,1.001,0.722,0.325,0.575,0.542,��,8.7,��
2023/05/13,21:40,0.562,0.830,0.497,0.999,0.721,0.325,0.575,0.545,��,8.4,��
2023/05/13,21:50,0.563,0.830,0.498,1.001,0.723,0.326,0.575,0.544,��,8.1,��
2023/05/13,22:00,0.563,0.829,0.497,1.001,0.724,0.324,0.577,0.544,��,10.2,��
2023/05/13,22:10,0.563,0.829,0.497,1.003,0.724,0.324,0.575,0.543,��,9.4,��
2023/05/13,22:20,0.563,0.829,0.498,1.000,0.723,0.323,0.576,0.543,��,9.7,��
2023/05/13,22:30,0.563,0.829,0.498,1.002,0.723,0.323,0.576,0.542,��,9.6,��
2023/05/13,22:40,0.564,0.829,0.497,1.000,0.726,0.325,0.576,0.544,��,9.4,��
2023/05/13,22:50,0.563,0.830,0.496,1.000,0.723,0.325,0.575,0.545,��,8.7,��
2023/05/13,23:00,0.562,0.828,0.496,1.000,0.724,0.325,0.575,0.543,��,8.4,��
2023/05/13,23:10,0.563,0.829,0.498,1.003,0.724,0.324,0.576,0.544,��,8.9,��
2023/05/13,23:20,0.563,0.829,0.497,1.001,0.725,0.323,0.576,0.544,��,7.7,��
2023/05/13,23:30,0.562,0.829,0.498,1.002,0.724,0.325,0.575,0.543,��,7.2,��
2023/05/13,23:40,0.564,0.829,0.498,1.001,0.723,0.323,0.576,0.544,��,7.6,��
2023/05/13,23:50,0.563,0.829,0.497,0.999,0.723,0.323,0.575,0.544,��,7.5,��
